Regional Weather Roundup
Issued by NWS Northern Indiana

Home | Current Version | Previous Version | Text Only | Print | Product List | Glossary Off
Versions: 1 2 3 4 5 6 7 8 9 10 11 12 13 14 15 16 17 18 19 20 21 22 23 24 25 26 27 28 29 30 31 32 33 34 35 36 37 38 39 40 41 42 43 44 45 46 47 48 49 50

000
ASUS43 KIWX 010700
RWRIWX

KIWX WEATHER ROUNDUP
NATIONAL WEATHER SERVICE NORTHERN INDIANA
300 AM EDT MON SEP 01 2014

NOTE: "FAIR" INDICATES FEW OR NO CLOUDS BELOW 12,000 FEET WITH NO
SIGNIFICANT WEATHER AND/OR OBSTRUCTIONS TO VISIBILITY.

* THESE STATIONS ARE NOT UNDER NWS QUALITY CONTROL. THEY ALSO MAY NOT
  REPORT WEATHER SUCH AS PRECIPITATION OR FOG.

INZ001>027-010800-
NORTHERN INDIANA

CITY           SKY/WX    TMP DP  RH WIND       PRES   REMARKS
VALPARAISO     CLEAR     72  69  90 S7        29.90F
KNOX*          PTCLDY    71  68  91 S7        29.90F
SOUTH BEND     MOCLDY    73  69  87 S9        29.91F
GOSHEN         CLEAR     73  69  87 S7        29.93F
MONTICELLO*    PTCLDY    72  71  96 S6        29.92F
ANGOLA*        CLEAR     68  59  73 S3        29.95S
FORT WAYNE     PTCLDY    70  68  93 S6        29.96F
PERU/GRISSOM   CLEAR     71  71 100 S7        29.95S

$$
INZ028>050-010800-
CENTRAL INDIANA

CITY           SKY/WX    TMP DP  RH WIND       PRES   REMARKS
LAFAYETTE      PTCLDY    72  70  93 S5        29.92F
KOKOMO*        CLEAR     70  66  88 S5        29.96S
MUNCIE*        MOCLDY    71  68  90 S6        29.98S
INDIANAPOLIS   PTCLDY    71  69  93 S8        29.95F

$$
MIZ043>046-050>051-056>058-064>065-071>073-077>080-010800-
SOUTHWEST LOWER MICHIGAN

CITY           SKY/WX    TMP DP  RH WIND       PRES   REMARKS
BATTLE CREEK   CLEAR     70  67  90 S7        29.92F
BENTON HARBOR  CLEAR     71  68  90 S9        29.88F
COLDWATER*     CLEAR     72  70  95 S3        29.93F
HILLSDALE*     CLEAR     71  71 100 SW3       29.95F FOG
HOLLAND        MOCLDY    70  67  90 S7        29.88F
GRAND RAPIDS   CLEAR     67  67 100 S8        29.89F
KALAMAZOO      CLEAR     71  68  90 S8        29.91F FOG
STURGIS*         N/A     70  70 100 S6        29.93F FOG
THREE RIVERS*  FAIR      70  69  98 S7        29.92F FOG

$$
OHZ001>008-015>018-024>025-010800-
NORTHWEST OHIO

CITY           SKY/WX    TMP DP  RH WIND       PRES   REMARKS
DEFIANCE       MOCLDY    72  68  87 SW6       29.95F
FINDLAY        CLEAR     70  67  90 S7        29.97S
TOLEDO EXPRESS LGT RAIN  72  69  90 S7        29.95S
TOLEDO METCALF PTCLDY    73  68  84 SW6       29.96S
LIMA           CLEAR     72  68  87 S7        29.99R

$$
&&


USA.gov is the U.S. government's official web portal to all federal, state and local government web resources and services.